This is the latest recevied weather packets stored in our database for station/object HG8LXL-2. If no packets are shown the sender has not sent any weather packets the latest 10 day(s).
| Time | Temp. | Humidity | Pressure | Rain* | Wind** | Luminosity | Snow |
|---|---|---|---|---|---|---|---|
| 1777391098 | 24.44° C | 14% | 1014 hPa | - | - | - | - |
| 1777390798 | 25° C | 14% | 1014.1 hPa | - | - | - | - |
| 1777390498 | 24.44° C | 14% | 1014.1 hPa | - | - | - | - |
| 1777390198 | 24.44° C | 13% | 1014.1 hPa | - | - | - | - |
| 1777389898 | 25° C | 13% | 1014.2 hPa | - | - | - | - |
| 1777389598 | 23.89° C | 14% | 1014.2 hPa | - | - | - | - |
| 1777388998 | 24.44° C | 13% | 1014.2 hPa | - | - | - | - |
| 1777388698 | 24.44° C | 13% | 1014.3 hPa | - | - | - | - |
| 1777388398 | 25° C | 13% | 1014.2 hPa | - | - | - | - |
| 1777388098 | 25.56° C | 12% | 1014.2 hPa | - | - | - | - |
| 1777387798 | 25° C | 13% | 1014.2 hPa | - | - | - | - |
| 1777387498 | 25.56° C | 12% | 1014.2 hPa | - | - | - | - |
| 1777387198 | 25° C | 13% | 1014.2 hPa | - | - | - | - |
| 1777386898 | 26.11° C | 12% | 1014.2 hPa | - | - | - | - |
| 1777386598 | 26.11° C | 12% | 1014.2 hPa | - | - | - | - |
| 1777386298 | 26.11° C | 12% | 1014.3 hPa | - | - | - | - |
| 1777385997 | 26.11° C | 12% | 1014.5 hPa | - | - | - | - |
| 1777385698 | 26.11° C | 12% | 1014.4 hPa | - | - | - | - |
| 1777385398 | 26.11° C | 12% | 1014.5 hPa | - | - | - | - |
| 1777385098 | 25.56° C | 12% | 1014.6 hPa | - | - | - | - |
| 1777384798 | 25.56° C | 12% | 1014.5 hPa | - | - | - | - |
| 1777384498 | 26.11° C | 12% | 1014.6 hPa | - | - | - | - |
| 1777384197 | 25.56° C | 12% | 1014.7 hPa | - | - | - | - |
| 1777383898 | 25.56° C | 11% | 1014.8 hPa | - | - | - | - |
| 1777383598 | 26.11° C | 12% | 1014.7 hPa | - | - | - | - |
* Rain since midnight (hover to see other rain measurements)
** Current wind speed in m/s (hover to see current wind gust speed)